Liberia, Costa Rica

3:31 AM CST on February 13, 2016 (GMT -0600)
Daniel Oduber Quiros International

Weather History for MRLB - April, 2015

Change the Weather History Date:

Wednesday, April 8, 2015

  Actual Average Record
Temperature  
Mean Temperature 82 °F -  
Max Temperature 97 °F 92 °F 101 °F (2014)
Min Temperature 67 °F 76 °F 66 °F (2013)
Cooling Degree Days 17    
Growing Degree Days 32 (Base 50)    
Moisture  
Dew Point 58 °F    
Average Humidity 37    
Maximum Humidity 64    
Minimum Humidity 16    
Precipitation  
Precipitation 0.00 in - - ()
Sea Level Pressure  
Sea Level Pressure 29.77 in    
Wind  
Wind Speed 14 mph ()    
Max Wind Speed 28 mph    
Max Gust Speed 37 mph    
Visibility 12.0 miles    
Events      
Averages and records for this station are not official NWS values.
T = Trace of Precipitation, MM = Missing Value Source: Averaged Metar Reports

Daily Weather History Graph

Daily Weather History Graph

Search for Another Location

Airport or City:

Trip Planner

Search our weather history database for the weather conditions in past years. The results will help you decide how hot, cold, wet, or windy it might be!

Date:

Astronomy

Apr. 08, 2015 Rise Set
Actual Time 5:35 AM CST 5:52 PM CST
Civil Twilight 5:14 AM CST 6:14 PM CST
Nautical Twilight 4:49 AM CST 6:38 PM CST
Astronomical Twilight 4:24 AM CST 7:03 PM CST
Moon 9:31 PM CST (4/8) 8:37 AM CST (4/8)
Length of Visible Light 13h 00m
Length of Day
12h 17m
Waning Gibbous, 83% of the Moon is Illuminated
Apr 8
Waning Gibbous
Apr 11
Last Quarter
Apr 18
New
Apr 25
First Quarter
May 3
Full

Hourly Weather History & Observations

Time (CST) Temp. Heat Index Dew Point Humidity Pressure Visibility Wind Dir Wind Speed Gust Speed Precip Events Conditions
12:00 AM 80.6 °F 80.8 °F 57.2 °F 45% 29.79 in - East 12.7 mph - N/A   Clear
6:00 AM 72 °F - 59 °F 54% 29.82 in 12 mi NNE 3.5 mph - -  
6:00 AM 71.6 °F - 59.0 °F 64% 29.79 in - NNE 3.5 mph - N/A   Clear
7:00 AM 75.2 °F - 59.0 °F 57% 29.81 in - NE 3.5 mph - N/A   Clear
8:00 AM 86.0 °F 85.4 °F 59.0 °F 40% 29.82 in - East 11.5 mph 24.2 mph N/A   Clear
9:00 AM 88 °F - 58 °F 26% 29.84 in 12 mi East 23.0 mph - -  
9:00 AM 87.8 °F 87.1 °F 59.0 °F 38% 29.81 in - East 23.0 mph - N/A   Clear
10:00 AM 91.4 °F 89.9 °F 57.2 °F 31% 29.79 in - East 24.2 mph 35.7 mph N/A   Clear
11:00 AM 93.2 °F 91.3 °F 55.4 °F 28% 29.78 in - East 27.6 mph - N/A   Clear
12:00 PM 95 °F - 54 °F 16% 29.79 in 12 mi East 23.0 mph - -   Clear
12:00 PM 95.0 °F 92.7 °F 53.6 °F 25% 29.77 in - East 23.0 mph 36.8 mph N/A   Clear
1:00 PM 95.0 °F 93.7 °F 57.2 °F 28% 29.74 in - East 21.9 mph - N/A   Clear
2:00 PM 95.0 °F 95.2 °F 60.8 °F 32% 29.71 in - ENE 23.0 mph - N/A   Scattered Clouds
3:00 PM 93 °F - 59 °F 22% 29.72 in 12 mi East 19.6 mph - -   Clear
3:00 PM 93.2 °F 91.9 °F 57.2 °F 30% 29.70 in - East 19.6 mph - N/A   Clear
4:00 PM 91.4 °F 89.4 °F 55.4 °F 29% 29.70 in - East 21.9 mph 33.4 mph N/A   Clear
5:00 PM 87.8 °F 87.6 °F 60.8 °F 40% 29.71 in - East 19.6 mph - N/A   Clear
6:00 PM 86 °F - 62 °F 34% 29.77 in 12 mi East 20.7 mph - -   Clear
6:00 PM 84.2 °F 84.4 °F 60.8 °F 45% 29.73 in - East 18.4 mph 34.5 mph N/A   Clear
7:00 PM 84.2 °F 83.8 °F 59.0 °F 42% 29.74 in - East 18.4 mph 31.1 mph N/A   Clear
8:00 PM 82.4 °F 82.9 °F 60.8 °F 48% 29.76 in - East 20.7 mph - N/A   Clear